TimeCST,TemperatureF,Dew PointF,Humidity,Sea Level PressureIn,VisibilityMPH,Wind Direction,Wind SpeedMPH,Gust SpeedMPH,PrecipitationIn,Events,Conditions,WindDirDegrees,DateUTC
12:52 AM,24.1,21.9,91,29.84,-9999.0,Calm,Calm,-,0.01,,Unknown,0,2013-02-22 06:52:00
1:52 AM,25.0,21.9,88,29.84,-9999.0,Calm,Calm,-,N/A,,Unknown,0,2013-02-22 07:52:00
2:52 AM,25.0,21.9,88,29.84,-9999.0,West,3.5,-,N/A,,Unknown,280,2013-02-22 08:52:00
3:52 AM,24.1,21.9,91,29.83,-9999.0,Calm,Calm,-,N/A,,Unknown,0,2013-02-22 09:52:00
4:52 AM,24.1,21.0,88,29.87,-9999.0,WSW,5.8,-,N/A,,Unknown,250,2013-02-22 10:52:00
5:52 AM,24.1,21.0,88,29.89,-9999.0,West,4.6,-,N/A,,Unknown,280,2013-02-22 11:52:00
6:52 AM,24.1,19.9,84,29.91,-9999.0,Variable,5.8,-,N/A,,Unknown,0,2013-02-22 12:52:00
7:52 AM,24.1,19.0,81,29.94,-9999.0,West,6.9,-,N/A,,Unknown,270,2013-02-22 13:52:00
8:52 AM,24.1,19.0,81,29.98,-9999.0,WSW,6.9,-,N/A,,Unknown,250,2013-02-22 14:52:00
9:52 AM,26.1,19.0,75,30.00,-9999.0,WNW,10.4,21.9,N/A,,Unknown,290,2013-02-22 15:52:00
10:52 AM,27.0,18.0,69,30.02,-9999.0,WNW,11.5,20.7,N/A,,Unknown,300,2013-02-22 16:52:00
11:52 AM,28.0,18.0,66,30.03,-9999.0,West,6.9,16.1,N/A,,Unknown,280,2013-02-22 17:52:00
12:52 PM,28.9,18.0,64,30.04,-9999.0,West,10.4,-,N/A,,Unknown,270,2013-02-22 18:52:00
1:52 PM,30.0,18.0,61,30.04,-9999.0,Variable,5.8,-,N/A,,Unknown,0,2013-02-22 19:52:00
2:52 PM,30.0,16.0,56,30.04,-9999.0,West,8.1,18.4,N/A,,Unknown,270,2013-02-22 20:52:00
3:52 PM,28.9,16.0,58,30.06,-9999.0,Variable,6.9,-,N/A,,Unknown,0,2013-02-22 21:52:00
4:52 PM,28.0,15.1,58,30.06,-9999.0,Variable,6.9,-,N/A,,Unknown,0,2013-02-22 22:52:00
5:52 PM,26.1,15.1,63,30.09,-9999.0,WNW,6.9,-,N/A,,Unknown,300,2013-02-22 23:52:00
6:52 PM,24.1,15.1,69,30.11,-9999.0,West,5.8,-,N/A,,Unknown,270,2013-02-23 00:52:00
7:52 PM,21.9,14.0,72,30.12,-9999.0,WNW,3.5,-,N/A,,Unknown,290,2013-02-23 01:52:00
8:52 PM,19.0,12.9,77,30.13,-9999.0,Calm,Calm,-,N/A,,Unknown,0,2013-02-23 02:52:00
9:52 PM,14.0,10.0,84,30.13,-9999.0,Calm,Calm,-,N/A,,Unknown,0,2013-02-23 03:52:00
10:52 PM,12.9,9.0,84,30.13,-9999.0,Calm,Calm,-,N/A,,Unknown,0,2013-02-23 04:52:00
11:52 PM,12.0,9.0,88,30.12,-9999.0,Calm,Calm,-,N/A,,Unknown,0,2013-02-23 05:52:00